Location: Chimatakollap?lem
(16.3646°N, 80.6568°E)
Time: 11:26:50
(UTC+00:00)

Daily predictions for brighter satellites

Satellite Brightness Start Highest point End
(mag) Time Altitude Azimuth Time Altitude Azimuth Time Altitude Azimuth
Cosmos 1833 Rocket 3.4 13:24:18 10° SSE 13:29:09 31° ESE 13:33:59 10° NE
MOS 1 Rocket 3.8 13:25:14 10° NNE 13:30:21 47° E 13:35:13 10° S
Cosmos 1151 Rocket 3.8 13:28:35 10° NNE 13:32:21 30° E 13:36:08 10° SE
YAOGAN 1 2.5 13:29:02 10° SSE 13:33:20 72° ENE 13:37:37 10° N
Cosmos 2366 rocket 4.1 13:32:44 10° SSE 13:38:52 55° E 13:44:56 10° NNE
CZ-4 R/B 1.8 13:38:11 10° S 13:41:59 61° W 13:45:50 10° NNW
Cosmos 1633 2.4 13:40:09 10° S 13:43:41 87° E 13:47:12 10° N
Cosmos 1408 Rocket 4.1 13:42:23 10° SSW 13:46:48 65° W 13:51:13 10° N
Yuri Rocket 2.9 13:42:05 10° WSW 13:46:51 83° SSE 13:50:59 10° ENE
SL-8 Rocket 4.0 13:43:52 10° S 13:50:01 85° W 13:56:12 10° N
Cosmos 1743 Rocket 3.5 13:47:48 10° S 13:52:08 62° E 13:56:30 10° NNE
Ariane Rocket 4.1 13:52:54 16° ESE 13:55:38 24° ENE 13:59:38 10° NNE
Centaur D AC-29 3.4 13:54:03 10° SW 13:59:29 53° SE 23:41:32 10° ESE
Cosmos 407 Rocket 3.8 13:55:08 10° S 14:00:10 43° E 14:05:11 10° NNE
HJ-1C 3.3 13:57:34 10° SSE 14:00:55 87° ENE 14:04:16 10° N
Cosmos 1606 3.3 13:57:55 10° NNW 14:01:39 56° W 14:05:21 10° S
CZ-2C R/B 2.8 13:59:33 10° SSE 14:04:35 84° ENE 14:09:24 10° N
Cosmos 1782 3.6 14:02:47 10° NNE 14:06:20 30° E 14:07:18 27° ESE
ATLAS 5 CENTAUR R/B 3.1 14:04:39 10° S 14:06:15 15° SSE 14:06:15 15° SSE
SL-08 R/B 4.5 14:03:43 10° S 14:09:56 65° E 14:16:04 10° NNE
Sakura Rocket 4.3 14:03:02 10° WNW 14:09:59 51° NNE 14:13:12 23° E
Cosmos 1933 3.6 14:06:12 10° N 14:10:16 72° W 14:14:20 10° S
GPS 2-15 Rocket1 4.5 14:07:23 10° SSW 14:10:49 20° SSE 14:11:14 20° SSE
Cosmos 1500 Rocket 3.7 14:06:34 10° S 14:10:52 75° W 14:15:09 10° N
GPS 2-17 Rocket1 3.5 14:06:39 10° WNW 14:11:02 51° N 14:13:34 22° ENE
CZ-3B R/B 3.9 14:07:42 10° WNW 14:11:17 63° NNE 14:17:21 21° E
COSMOS 2406 4.2 14:10:47 10° SSW 14:16:20 51° WNW 14:21:54 10° N
Cosmos 1441 Rocket 3.4 14:14:50 26° SSE 14:16:36 47° E 14:20:15 10° NNE
Aureole 1 Rocket 4.5 14:13:26 18° SSE 14:16:52 34° E 14:23:00 10° NE
CSL-04 Rocket 4.3 14:14:05 10° S 14:19:15 53° WSW 14:24:25 10° NNW
Cosmos 1140 Rocket 3.5 14:15:52 10° S 14:20:55 54° ESE 14:26:01 10° NNE
Cosmos 1023 Rocket 4.4 14:19:29 10° S 14:24:39 63° ESE 14:29:51 10° NNE
H-2A R/B 2.3 14:19:42 10° S 14:24:58 71° WSW 14:30:06 10° NNW
Meteor 1-26 Rocket 4.1 14:19:53 10° N 14:25:19 85° W 14:30:32 11° S
Cosmos 2082 Rocket 2.1 14:20:22 10° S 14:25:59 64° ESE 14:31:36 10° NNE
BREEZE-M DEB (TANK) 4.5 14:25:37 10° S 14:29:22 38° ESE 14:40:38 10° NE
NOSS 3-2 (A) 3.0 14:25:45 10° SSW 14:31:03 69° ESE 14:36:39 10° NNE
Cosmos 1339 Rocket 4.5 14:25:42 10° N 14:32:00 84° W 14:38:11 10° S
ARGOS 3.2 14:28:43 15° S 14:33:13 82° WSW 14:38:36 10° NNW
Cosmos 1805 Rocket 3.4 14:30:37 15° S 14:34:14 89° E 14:38:40 10° N
IRS-1A Rocket 4.2 14:34:30 33° SSE 14:37:01 72° ENE 14:42:39 10° N
CZ-2C R/B 3.5 14:34:55 10° NNE 14:39:25 87° E 14:42:03 25° S
Delta 202 3.8 14:40:17 10° W 14:46:58 73° N 14:48:23 50° ENE
SPOT 3 Rocket 4.5 14:51:24 33° NE 14:51:24 33° NE 14:54:56 10° N
CZ-2C R/B 3.9 14:45:55 10° N 14:50:44 40° WNW 14:55:39 10° SW
Meteor 2-6 Rocket 4.2 14:45:24 10° N 14:50:57 62° E 14:51:18 61° ESE
Cosmos 1867 4.5 14:47:48 10° SW 14:52:58 48° WNW 14:58:11 10° N
Cosmos 972 Rocket 4.2 14:50:18 10° N 14:54:13 50° NE 14:54:13 50° NE
IRIDIUM 104 4.4 14:52:54 33° SSW 14:55:15 75° W 15:00:27 10° N
Gbstr 26 Del rocket 3.5 14:52:19 10° NW 14:55:03 48° NW 14:55:03 48° NW
Cosmos 676 Rocket 3.9 14:57:19 71° NE 14:57:19 71° NE 15:02:10 10° NNE
SJ-6B 3.5 14:59:50 56° WNW 14:59:50 56° WNW 15:03:23 10° NNW
MetOp-A 4.0 15:01:44 84° SE 15:01:54 87° ENE 15:07:15 10° NNW
Cosmos 1934 Rocket 4.0 15:03:11 63° ENE 15:03:11 63° ENE 15:09:06 10° NNE
Cosmos 1727 Rocket 4.2 15:03:30 10° N 15:09:48 70° W 15:11:54 43° SSW
ATLAS 5 CENTAUR R/B 3.2 15:11:03 10° N 15:16:11 44° NE 15:16:11 44° NE
Cosmos 2228 Rocket 4.4 15:13:46 10° NNW 15:17:11 38° WNW 15:17:11 38° WNW
Resurs 01 Rocket 4.0 15:21:56 15° N 15:21:56 15° N 15:22:47 10° N
Meteor 1-10 Rocket 4.5 15:16:41 10° N 15:21:45 68° NW 15:21:45 68° NW
CZ-3A R/B 3.7 14:52:59 10° WNW 15:23:26 66° N 15:26:15 49° ENE
CENTAUR R/B 4.3 15:53:42 20° N 15:53:42 20° N 15:55:43 10° N
VEP-3 4.0 16:05:03 10° WNW 16:51:40 12° ESE 16:59:03 10° ESE
VEP-3 4.0 16:05:03 10° WNW 16:51:39 12° ESE 16:59:03 10° ESE
VEP-3 4.0 16:05:04 10° WNW 16:51:40 12° ESE 16:59:03 10° ESE
VEP-3 4.0 16:05:03 10° WNW 16:51:41 12° ESE 16:59:03 10° ESE
Centaur D-1AR AC-40 4.5 21:11:31 40° SE 21:11:31 40° SE 21:28:00 10° ESE
Hubble Space Telescope 3.9 21:41:55 13° NE 21:41:55 13° NE 21:42:23 10° NE
CZ-2C R/B 3.7 21:55:05 10° NE 21:58:58 34° E 21:58:58 34° E
Chandra Rocket (1) 4.4 21:58:07 45° SSW 22:00:34 52° SSE 22:06:23 10° E
Lacrosse 5 rocket 4.3 22:01:06 10° ESE 22:01:39 11° ESE 22:02:41 10° ESE
Cosmos 2058 Rocket 4.3 22:07:57 40° ENE 22:07:57 40° ENE 22:11:34 10° NNE
Cosmos 1844 Rocket 3.0 22:17:53 52° NNW 22:17:53 52° NNW 22:22:18 10° N
H-2A R/B 2.8 22:19:34 47° ENE 22:19:35 47° ENE 22:23:32 10° N
H-2A R/B (2) 3.7 22:21:23 13° N 22:21:37 13° N 22:23:17 10° NE
MSX 4.5 22:17:52 10° N 22:22:07 41° NW 22:22:07 41° NW
Meteosat 1 Rocket2 3.9 22:25:30 55° NW 22:25:55 57° NNW 22:30:33 10° NE
Cosmos 1300 4.3 22:30:47 27° N 22:30:47 27° N 22:32:37 10° N
Atlas Centaur 2 4.0 22:27:21 24° NW 22:30:22 32° N 22:37:26 10° NE
SL-4 R/B 3.7 22:35:18 20° SE 22:35:18 20° SE 22:36:31 10° SE
Cosmos 1603 3.5 22:31:15 10° NNW 22:36:54 68° WSW 22:42:29 10° S
Cosmos 1825 Rocket 3.4 22:37:12 10° N 22:41:18 74° WNW 22:41:18 74° WNW
Cosmos 724 4.2 22:35:51 10° NNW 22:41:56 70° WSW 22:48:04 10° SSE
ATLAS 3B CENTAUR R/B 3.4 22:33:54 10° WNW 22:44:31 48° N 22:49:16 10° E
CZ-3B R/B 4.2 22:21:35 10° WNW 22:44:52 56° SW 22:51:38 10° SE
GPS 2-18 Rocket1 3.3 22:45:16 60° N 22:45:18 60° N 22:48:56 10° E
ATLAS 2A CENTAUR R/B 1.6 22:45:12 46° NNE 22:45:19 46° NNE 22:50:31 10° E
SWIFT 3.8 22:48:17 24° SSE 22:48:32 24° SSE 22:51:55 10° ESE
USA 281 3.4 22:43:00 10° N 22:49:19 52° WNW 22:51:43 36° WSW
Meteor 2-15 Rocket 4.4 22:47:33 34° SSW 22:50:07 62° W 22:56:06 10° N
Cosmos 1953 Rocket 3.6 22:45:45 10° N 22:50:13 82° E 22:54:38 10° S
ADEOS 3.5 22:45:57 10° NNE 22:51:10 87° W 22:54:20 24° SSW
GPS 2-15 Rocket1 3.4 22:51:42 46° SSW 22:52:06 48° SSW 22:56:51 10° ESE
ERS-2 1.9 22:54:15 69° W 22:54:15 69° W 22:57:46 10° NNW
Cosmos 1386 Rocket 4.3 22:49:02 10° N 22:55:02 81° W 23:01:05 10° S
Cosmos 883 Rocket 4.5 22:53:09 28° SSW 22:56:18 57° W 23:02:24 10° N
SeaSat 1 4.0 22:52:49 10° NNW 22:55:52 20° NW 22:55:52 20° NW
Cosmos 1943 3.3 22:54:29 10° NNW 22:59:52 48° WSW 23:05:15 10° S
Landsat 5 3.9 23:01:18 36° WNW 23:01:18 36° WNW 23:04:12 10° NNW
Meteor 2-10 Rocket 4.2 22:59:35 10° S 23:04:28 54° E 23:09:31 10° NNE
ALOS 2.3 23:07:43 10° NNE 23:12:23 83° E 23:17:02 10° S
Meteor 1-31 Rocket 2.6 23:09:06 10° N 23:12:55 89° WNW 23:16:25 12° SSW
Cosmos 1745 Rocket 4.2 23:08:36 10° NNW 23:14:30 47° W 23:20:20 10° SSW
TSX-5 3.3 23:12:36 24° SSW 23:14:38 86° WNW 23:17:49 10° NNE
CZ-4B R/B 3.8 23:10:54 10° NNE 23:15:14 55° E 23:19:23 10° S
Cosmos 1484 Rocket 2.6 23:12:27 10° N 23:16:09 71° WNW 23:19:17 14° SSW
Hubble Space Telescope 2.9 23:17:15 10° NW 23:20:06 18° N 23:22:56 10° NE
SAR-Lupe-4 3.6 23:17:28 10° SSE 23:21:01 82° ENE 23:24:34 10° N
FALCON 9 DEB 3.1 23:17:58 10° NW 23:21:21 57° SW 23:24:44 10° SSE
FENGYUN 3A 3.6 23:18:47 10° N 23:24:07 72° WNW 23:29:28 10° SSW
Cosmos 1174 3.7 23:24:31 22° SW 23:26:24 52° WNW 23:30:15 10° NNE
Centaur D-1A AC-35 2.8 23:18:31 10° WNW 23:28:28 88° NNE 23:32:10 10° ESE
Cosmos 1892 3.9 23:25:48 10° N 23:29:26 44° E 23:33:03 10° SSE
Cosmos 1400 Rocket 2.7 23:25:54 10° S 23:29:52 89° E 23:33:47 10° N
CZ-4B R/B 1.4 23:29:19 10° S 23:32:36 56° W 23:35:49 10° NNW
Cosmos 1932 4.5 23:27:57 10° NNW 23:34:09 59° WSW 23:40:14 10° S
ATLAS 2A CENTAUR R/B 0.6 23:33:03 14° WNW 23:35:15 61° SSW 23:37:11 10° ESE
H-2A R/B 3.6 23:32:22 10° NNE 23:35:59 42° E 23:39:40 10° S
SAR-Lupe-1 4.0 23:32:38 10° S 23:36:10 60° WSW 23:39:42 10° NNW
CZ-2C R/B 4.1 23:35:10 10° NW 23:37:12 13° WNW 23:38:20 12° W
Cosmos 2058 3.7 23:34:24 10° N 23:38:30 55° E 23:42:36 10° SSE
Cosmos 1812 Rocket 3.7 23:34:31 10° SSW 23:38:42 48° W 23:42:52 10° N
Ariane H10+ 3.7 23:27:43 15° WSW 23:39:11 41° SSW 23:44:08 10° ESE
Lacrosse 5 rocket 1.9 23:36:47 14° SW 23:40:25 46° WNW 23:44:48 10° NNE
ADEOS Rocket 3.6 23:35:06 10° SSE 23:42:22 89° WSW 23:50:07 10° NNW
Cosmos 1269 Rocket 4.0 23:38:51 10° NNW 23:44:08 88° WSW 23:49:26 10° SSE
GPS 2-12 Rocket1 3.2 23:39:58 13° WSW 23:44:11 79° SSE 23:49:00 10° E
Cosmos 2278 Rocket 2.4 23:43:02 10° SSW 23:48:33 54° WNW 23:54:05 10° N
Ariane H10+ 4.5 14:51:35 10° WSW 23:50:28 27° SW 23:55:28 10° SSE
Meteor PRIRODA 3.9 23:49:53 10° N 23:53:29 48° WNW 23:57:04 10° SSW
Cosmos 1315 Rocket 3.9 23:50:47 10° S 23:54:44 50° E 23:58:43 10° NNE
